STARLINK-11671, 64319

Orbit data source: Space-Track

STARLINK-11671, 64319 is a payload satellite owned by SpaceX/Seattle (US) in LEO that was launched on Tue, 10 Jun 2025 UTC via an FALCON 9 launch vehicle from the Air Force Eastern Test Range (AFETR). Payload-class satellites include a variety of spacecraft equipped with specific instruments for various scientific and technological missions. These include communications satellites like Starlink; space stations such as the ISS; scientific satellites like the Hubble; Earth observation satellites from companies like Planet Labs, Umbra, and HawkEye 360; GPS; miniature CubeSats for education and research; and military/defense satellites.

Loading next visibility...
Identifier
64319, 2025-124C
Orbit
LEO
Country
Flag of USUS
Related business
Manufacturer
SpaceX/Seattle
Mission
Operational Commercial Communications
Bus & Motor
STARLINK V2MD, Unknown motor
Mass
960 kg wet, ~910 kg dry
Launch date (UTC)
2025-06-10 (11 months ago)
Launch vehicle
FALCON 9
Launch site
Air Force Eastern Test Range (AFETR)
Object type
Payload
Rocket body
Debris
Shape & HBR
Box + 2 Pan, 18.1 m
Radar Cross Section
36.964 m², Large (>1 m²)

Expand to show TLE details & history
Last TLE update: 23 hours ago

TLE from 23 hours ago
0 STARLINK-11671
1 64319U 25124C   26119.28622319  .00142198  00000-0  10916-2 0  9993
2 64319  42.9999  84.0810 0001468 254.6191 105.4514 15.70866360 50798
Epoch: 2026-04-29T06:52Z
TLE epoch observation values (Epoch: 2026-04-29T06:52:09.683Z)
Latitude
-0.00006°
Longitude
123.79123°
Altitude
356.454 km
Speed
7.697 km/s
True Right ascension
05h 36m 19s
True Declination
0° 00' 00"
Sunlit
Object was in daylight at epoch
Visualization orbit readout
Latitude
Unknown
Longitude
Unknown
Altitude
Unknown
Speed
Unknown
Apparent Right ascension
Unknown
Apparent Declination
Unknown
Sunlit
N/A
Visualization observer readout
Local Sidereal Time
13:40:03
Azimuth
Unknown
Elevation
Unknown
Doppler factor
Unknown
Orbital elements
Apogee altitude
359.39 km
Perigee altitude
357.412 km
Semi-major axis
6,736.538 km
Eccentricity
0.00015
Inclination
42.9999°
RAAN
84.081°
Arg. of periapsis
254.6191°
True anomaly
105.46761°
Mean anomaly
105.4514°
Eccentric anomaly
105.45951°
Mean motion
3.92544 °/min
Orbital period
91.71 mins
BSTAR
0.0010916
Loading maneuver chart data...
Computing Atmospheric mass density...
Loading historical data...
Loading historical data...
Loading historical data...
Loading historical data...
Loading historical data...
Loading historical data...
Loading historical data...

Documentation

Showing up to 5 results
|